Weather Roundup
Issued by NWS

Home | Current Version | Previous Version | Text Only | Print | Product List | Glossary On
Versions: 1 2 3 4 5 6 7 8 9 10 11 12 13 14 15 16 17 18 19 20 21 22 23 24 25 26 27 28 29 30 31 32 33 34 35 36 37 38 39 40 41 42 43 44 45 46 47 48 49 50
654
NZUS93 KARX 082310
HRRWXR

CURRENT HOURLY OBSERVATIONS ACROSS
MUCH OF THE UPPER MISSISSIPPI VALLEY
NATIONAL WEATHER SERVICE LA CROSSE WI
500 PM CST THU DEC 08 2016


...SOUTHEAST MINNESOTA...


CITY           SKY/WX    TMP DP  RH WIND       PRES   REMARKS
ROCHESTER      CLOUDY    20  15  81 NW14      30.40R WCI   7
ROCHESTER/MAYO CLOUDY    21  16  83 W18       30.41R WCI   6
WINONA         CLOUDY    27  18  69 NW10G18   30.42R WCI  17
AUSTIN         FLURRIES  18  12  79 NW15G21   30.44R WCI   3
ALBERT LEA     FLURRIES  21  14  73 NW13G24   30.46R WCI   9
DODGE CENTER   FLURRIES  18  16  93 W15       30.42R WCI   3
PRESTON        CLOUDY    19  14  81 NW16      30.40R WCI   4
OWATONNA       FLURRIES  19  12  73 W16       30.45R WCI   5
FARIBAULT      NOT AVBL
$$

...ELSEWHERE IN MINNESOTA...


CITY           SKY/WX    TMP DP  RH WIND       PRES   REMARKS
MINNEAPOLIS    FLURRIES  21  11  65 NW14      30.46R WCI   8
INTNL FALLS    CLOUDY    16   9  74 NW13G22   30.40R WCI   2
DULUTH         MOCLDY    20  11  68 NW14      30.32R WCI   7
RED WING       FLURRIES  23  14  68 W13       30.42R WCI  11
REDWOOD FALLS  CLOUDY    15   8  73 NW12      30.53R WCI   2
MANKATO        FLURRIES  17  11  77 NW20G26   30.49R WCI   1
WORTHINGTON    CLEAR     14   9  80 NW15      30.52R WCI  -1
FAIRMONT       NOT AVBL
$$

...SOUTHWEST WISCONSIN...


CITY           SKY/WX    TMP DP  RH WIND       PRES   REMARKS
LA CROSSE      CLOUDY    26  17  68 NW12      30.40R WCI  16
PRAIRIE DU CHI FLURRIES  24  16  71 W12       30.42R WCI  12
BOSCOBEL       CLOUDY    25  15  66 W9        30.41R WCI  15
LONE ROCK      CLOUDY    24  15  68 W9        30.39R WCI  14
PLATTEVILLE    CLOUDY    22  17  81 W12       30.39R WCI  11
FORT MC COY    FLURRIES  24  18  75 W8        30.37R WCI  16
CAMP DOUGLAS   FLURRIES  23  18  80 W10       30.35R WCI  12
MAUSTON-NEW LI FLURRIES  24  18  77 W9        30.34R WCI  15
VIROQUA        CLOUDY    22  18  87 W8        30.35R WCI  12
WIS DELLS      FLURRIES  23  16  74 W10       30.34R WCI  12
$$

...ELSEWHERE IN WISCONSIN...


CITY           SKY/WX    TMP DP  RH WIND       PRES   REMARKS
MILWAUKEE      FLURRIES  26  14  60 W14G23    30.30R WCI  14
MADISON        FLURRIES  23  16  74 W10       30.35R WCI  12
GREEN BAY      PTCLDY    30  19  63 W16       30.24R WCI  19
EAU CLAIRE     CLOUDY    24  16  71 NW12      30.37R WCI  13
BLACK RVR FLS  FLURRIES  25  18  76 N5        30.36R WCI  19
MEDFORD        FLURRIES  22  16  78 NW12      30.27R WCI  10
WAUSAU         CLOUDY    23  16  74 NW15      30.26R WCI  10
WIS RAPIDS     CLOUDY    23  16  74 NW9       30.32R WCI  13
MARSHFIELD     MOCLDY    21  13  71 W13       30.29R WCI   9
RICE LAKE      CLOUDY    24  15  68 W12G17    30.38R WCI  13
$$

...NORTHEAST IOWA...


CITY           SKY/WX    TMP DP  RH WIND       PRES   REMARKS
WATERLOO       CLOUDY    21  14  74 NW12      30.47R WCI   9
DUBUQUE        CLOUDY    21  13  71 NW17      30.41R WCI   7
DECORAH        CLOUDY    19  16  86 NW10      30.40R WCI   8
MASON CITY     FLURRIES  19  11  70 NW18      30.48R WCI   4
CHARLES CITY   LGT SNOW  19  14  79 NW15G21   30.46R WCI   5
OELWEIN        FLURRIES  19  14  79 NW15      30.45R WCI   5
$$

...ELSEWHERE IN IOWA...


CITY           SKY/WX    TMP DP  RH WIND       PRES   REMARKS
DES MOINES     PTCLDY    23  10  57 NW13      30.54R WCI  11
IOWA CITY      CLOUDY    22  13  68 NW10G23   30.52R WCI  11
FORT DODGE     PTCLDY    21   9  58 NW8       30.52R WCI  12
MARSHALLTOWN   CLOUDY    23  14  68 NW20      30.49R WCI   8
CEDAR RAPIDS   CLOUDY    20  16  84 W16       30.47R WCI   6
$$

...NORTHERN ILLINOIS...


CITY           SKY/WX    TMP DP  RH WIND       PRES   REMARKS
CHICAGO-OHARE  CLOUDY    22  14  71 W15       30.35R WCI   9
CHICAGO-MIDWAY FLURRIES  23  13  65 W15G23    30.37R WCI  10
MOLINE         CLOUDY    23  13  65 W16G25    30.47R WCI  10
ROCKFORD       FLURRIES  23  15  71 W15       30.40R WCI  10
PEORIA         CLOUDY    21  12  68 NW12      30.49R WCI   9
$$

NOTE: "FAIR" INDICATES FEW OR NO CLOUDS BELOW 12,000 FEET WITH NO
SIGNIFICANT WEATHER AND/OR OBSTRUCTIONS TO VISIBILITY. WIND
SPEEDS ARE IN MILES-PER-HOUR.




USA.gov is the U.S. government's official web portal to all federal, state and local government web resources and services.